TimeAST,TemperatureF,Dew PointF,Humidity,Sea Level PressureIn,VisibilityMPH,Wind Direction,Wind SpeedMPH,Gust SpeedMPH,PrecipitationIn,Events,Conditions,WindDirDegrees,DateUTC
12:55 AM,87.1,78.8,76,29.75,6.2,East,4.6,-,N/A,,Clear,90,2013-09-12 21:55:00
1:55 AM,86.5,79.0,78,29.75,6.2,East,4.6,-,N/A,,Clear,80,2013-09-12 22:55:00
2:55 AM,85.6,78.3,78,29.75,6.2,SE,3.5,-,N/A,,Clear,130,2013-09-12 23:55:00
3:55 AM,83.7,77.9,83,29.75,6.2,Calm,Calm,-,N/A,,Clear,0,2013-09-13 00:55:00
4:55 AM,82.9,77.0,82,29.77,6.2,Calm,Calm,-,N/A,,Clear,0,2013-09-13 01:55:00
5:55 AM,82.8,76.8,82,29.80,6.2,Calm,Calm,-,N/A,,Clear,0,2013-09-13 02:55:00
6:55 AM,85.1,77.7,78,29.83,6.2,NNW,4.6,-,N/A,,Clear,330,2013-09-13 03:55:00
7:55 AM,88.9,79.0,72,29.84,6.2,NW,5.8,-,N/A,,Clear,320,2013-09-13 04:55:00
8:55 AM,92.7,76.3,59,29.84,6.2,Calm,Calm,-,N/A,,Clear,0,2013-09-13 05:55:00
9:55 AM,95.4,76.8,55,29.83,6.2,Calm,Calm,-,N/A,,Clear,0,2013-09-13 06:55:00
10:55 AM,97.3,74.3,47,29.81,6.2,Calm,Calm,-,N/A,,Clear,0,2013-09-13 07:55:00
11:55 AM,100.4,73.4,42,29.80,6.2,East,6.9,-,N/A,,Clear,80,2013-09-13 08:55:00
12:55 PM,102.9,71.8,37,29.77,6.2,NNE,6.9,-,N/A,,Clear,20,2013-09-13 09:55:00
1:55 PM,101.3,77.9,47,29.75,6.2,East,9.2,19.6,N/A,,Clear,80,2013-09-13 10:55:00
2:55 PM,101.8,72.0,38,29.75,6.2,East,10.4,-,N/A,,Clear,80,2013-09-13 11:55:00
3:55 PM,101.1,70.0,36,29.75,6.2,NE,11.5,-,N/A,,Clear,50,2013-09-13 12:55:00
4:55 PM,98.2,75.4,48,29.76,6.2,NNE,9.2,-,N/A,,Clear,30,2013-09-13 13:55:00
5:55 PM,95.4,74.3,50,29.77,6.2,NE,9.2,-,N/A,,Clear,50,2013-09-13 14:55:00
6:55 PM,93.7,72.3,50,29.79,6.2,ENE,5.8,-,N/A,,Clear,70,2013-09-13 15:55:00
7:55 PM,90.9,76.1,62,29.81,6.2,East,5.8,-,N/A,,Clear,90,2013-09-13 16:55:00
8:55 PM,89.8,76.5,65,29.80,6.2,East,3.5,-,N/A,,Clear,100,2013-09-13 17:55:00
9:55 PM,86.7,75.0,68,29.80,6.2,Calm,Calm,-,N/A,,Clear,0,2013-09-13 18:55:00
10:55 PM,85.8,73.0,65,29.79,6.2,NNW,6.9,-,N/A,,Clear,340,2013-09-13 19:55:00
11:55 PM,84.4,74.7,72,29.78,6.2,NNW,8.1,-,N/A,,Clear,340,2013-09-13 20:55:00